STARLINK-35384

Last updated on Mon Oct 20 2025 00:02:08 GMT+0000 (Coordinated Universal Time)

1 65884U 25224C 25292.25002315 -.01458941 00000+0 -78351-2 0 9993 2 65884 53.1510 313.5255 0001149 83.9656 24.0579 15.82220217 3105
UTC large
Height (km)
Speed (km/s)
/
Latitude / Longitude
Inclination (degrees)
Orbital Period (minutes)
Azimuth
Elevation
Range (km)
Doppler Factor

Next 0 passes for location: London (51.5072 / 0.1276)

Sorry there are no passes over London.